When you browse on this site, cookies collect data to enhance your experience and personalize the content and advertising you see.
Visit our Privacy Policy to learn more. By continuing to use the site, you agree to this use of cookies and data.
  • In Latvia
  • List of Countries
  • For 7 days
  • Water Temperature
  • Weather Map
  • Weather Widgets
  • user-avatar
    Login

    Hourly Weather Knighton

    Today, 29 January, Wednesday

    Time Temperature Precipitation Wind Pressure Humidity
    00:00 -2°C° 0 mm 6 mps 721 mmHg 84%
    01:00 -2°C° 0 mm 6 mps 722 mmHg 84%
    02:00 -2°C° 0 mm 6 mps 722 mmHg 84%
    03:00 -2°C° 0 mm 6 mps 723 mmHg 85%
    04:00 -2°C° 0 mm 6 mps 723 mmHg 85%
    05:00 -2°C° 0 mm 6 mps 723 mmHg 86%
    06:00 -1°C° 0 mm 5 mps 724 mmHg 86%
    07:00 -1°C° 0 mm 5 mps 724 mmHg 86%
    08:00 -1°C° 0 mm 5 mps 725 mmHg 86%
    09:00 0°C° 0 mm 4 mps 725 mmHg 87%
    10:00 +1°C° 0 mm 5 mps 725 mmHg 82%
    11:00 +2°C° 0 mm 6 mps 726 mmHg 78%
    12:00 +4°C° 0 mm 7 mps 727 mmHg 74%
    13:00 +4°C° 0 mm 7 mps 726 mmHg 75%
    14:00 +4°C° 0 mm 7 mps 726 mmHg 76%
    15:00 +4°C° 0 mm 7 mps 726 mmHg 77%
    16:00 +4°C° 0 mm 7 mps 726 mmHg 81%
    17:00 +3°C° 0 mm 6 mps 725 mmHg 85%
    18:00 +2°C° 0 mm 6 mps 725 mmHg 90%
    19:00 +2°C° 0 mm 6 mps 725 mmHg 90%
    20:00 +3°C° 0 mm 6 mps 725 mmHg 91%
    21:00 +3°C° 0 mm 6 mps 726 mmHg 91%
    22:00 +3°C° 0 mm 6 mps 725 mmHg 92%
    23:00 +3°C° 0 mm 6 mps 725 mmHg 92%

    Tomorrow, 30 January, Thursday

    Time Temperature Precipitation Wind Pressure Humidity
    00:00 +3°C° 0 mm 5 mps 725 mmHg 92%
    01:00 +2°C° 0 mm 5 mps 725 mmHg 93%
    02:00 +3°C° 0 mm 4 mps 724 mmHg 94%
    03:00 +2°C° 0 mm 3 mps 724 mmHg 95%
    04:00 +3°C° 0 mm 2 mps 723 mmHg 96%
    05:00 +3°C° 0 mm 2 mps 723 mmHg 97%
    06:00 +3°C° 0 mm 2 mps 722 mmHg 98%
    07:00 +3°C° 0 mm 2 mps 722 mmHg 98%
    08:00 +4°C° 0 mm 2 mps 721 mmHg 98%
    09:00 +5°C° 0 mm 2 mps 721 mmHg 97%
    10:00 +5°C° 0 mm 3 mps 721 mmHg 95%
    11:00 +7°C° 0 mm 4 mps 721 mmHg 92%
    12:00 +8°C° 0 mm 5 mps 720 mmHg 89%
    13:00 +8°C° 0 mm 5 mps 720 mmHg 89%
    14:00 +9°C° 0 mm 6 mps 720 mmHg 89%
    15:00 +9°C° 0 mm 6 mps 720 mmHg 89%
    16:00 +9°C° 0 mm 6 mps 720 mmHg 89%
    17:00 +8°C° 0 mm 6 mps 720 mmHg 89%
    18:00 +8°C° 0 mm 6 mps 721 mmHg 89%
    19:00 +6°C° 0 mm 7 mps 721 mmHg 88%
    20:00 +5°C° 0 mm 7 mps 722 mmHg 87%
    21:00 +4°C° 0 mm 7 mps 722 mmHg 86%
    22:00 +4°C° 0 mm 6 mps 723 mmHg 87%
    23:00 +5°C° 0 mm 5 mps 723 mmHg 89%

    Day after tomorrow, 31 January, Friday

    Time Temperature Precipitation Wind Pressure Humidity
    00:00 +3°C° 0 mm 5 mps 724 mmHg 90%
    01:00 +3°C° 0 mm 5 mps 724 mmHg 92%
    02:00 +5°C° 0 mm 5 mps 724 mmHg 94%
    03:00 +5°C° 0 mm 5 mps 724 mmHg 95%
    04:00 +5°C° 0 mm 6 mps 724 mmHg 93%
    05:00 +7°C° 0 mm 6 mps 723 mmHg 92%
    06:00 +8°C° 0 mm 7 mps 723 mmHg 90%
    07:00 +8°C° 0.1 mm 7 mps 723 mmHg 90%
    08:00 +8°C° 0.1 mm 6 mps 723 mmHg 91%
    09:00 +7°C° 0.1 mm 6 mps 723 mmHg 91%
    10:00 +8°C° 0.3 mm 7 mps 723 mmHg 90%
    11:00 +9°C° 0.3 mm 7 mps 723 mmHg 90%
    12:00 +9°C° 0.3 mm 8 mps 723 mmHg 89%
    13:00 +9°C° 0.1 mm 7 mps 722 mmHg 90%
    14:00 +9°C° 0.1 mm 6 mps 722 mmHg 90%
    15:00 +9°C° 0.1 mm 6 mps 721 mmHg 91%
    16:00 +9°C° 0 mm 6 mps 721 mmHg 91%
    17:00 +9°C° 0 mm 6 mps 721 mmHg 91%
    18:00 +9°C° 0 mm 6 mps 721 mmHg 92%
    19:00 +8°C° 0 mm 6 mps 720 mmHg 91%
    20:00 +8°C° 0 mm 6 mps 720 mmHg 90%
    21:00 +7°C° 0 mm 6 mps 720 mmHg 90%
    22:00 +7°C° 0 mm 6 mps 719 mmHg 89%
    23:00 +7°C° 0 mm 6 mps 719 mmHg 88%

    1 February, Saturday

    Time Temperature Precipitation Wind Pressure Humidity
    00:00 +7°C° 0 mm 5 mps 719 mmHg 87%
    01:00 +5°C° 0.3 mm 6 mps 719 mmHg 87%
    02:00 +5°C° 0.3 mm 7 mps 719 mmHg 88%
    03:00 +5°C° 0.3 mm 8 mps 719 mmHg 88%
    04:00 +4°C° 0 mm 8 mps 719 mmHg 85%
    05:00 +2°C° 0 mm 8 mps 719 mmHg 82%
    06:00 +1°C° 0 mm 8 mps 719 mmHg 80%
    07:00 +1°C° 0 mm 9 mps 720 mmHg 79%
    08:00 +1°C° 0 mm 9 mps 721 mmHg 79%
    09:00 +1°C° 0 mm 10 mps 721 mmHg 79%
    10:00 +2°C° 0 mm 11 mps 722 mmHg 77%
    11:00 +2°C° 0 mm 11 mps 723 mmHg 75%
    12:00 +2°C° 0 mm 12 mps 723 mmHg 73%
    13:00 +2°C° 0 mm 12 mps 724 mmHg 73%
    14:00 +2°C° 0 mm 11 mps 725 mmHg 72%
    15:00 +2°C° 0 mm 11 mps 725 mmHg 71%
    16:00 +1°C° 0 mm 10 mps 726 mmHg 72%
    17:00 +1°C° 0 mm 9 mps 727 mmHg 73%
    18:00 +1°C° 0 mm 8 mps 728 mmHg 74%
    19:00 0°C° 0 mm 7 mps 728 mmHg 77%
    20:00 +1°C° 0 mm 6 mps 729 mmHg 79%
    21:00 0°C° 0 mm 4 mps 729 mmHg 82%
    22:00 0°C° 0 mm 4 mps 729 mmHg 84%
    23:00 +1°C° 0 mm 3 mps 729 mmHg 86%

    2 February, Sunday

    Time Temperature Precipitation Wind Pressure Humidity
    00:00 0°C° 0 mm 3 mps 729 mmHg 88%
    01:00 +1°C° 0.6 mm 3 mps 729 mmHg 90%
    02:00 +2°C° 0.6 mm 2 mps 728 mmHg 93%
    03:00 +2°C° 0.6 mm 2 mps 727 mmHg 95%
    04:00 +2°C° 1.7 mm 3 mps 726 mmHg 96%
    05:00 +1°C° 1.7 mm 4 mps 725 mmHg 96%
    06:00 +2°C° 1.7 mm 5 mps 724 mmHg 97%
    07:00 +4°C° 0.2 mm 4 mps 724 mmHg 97%
    08:00 +5°C° 0.2 mm 4 mps 724 mmHg 97%
    09:00 +6°C° 0.2 mm 4 mps 724 mmHg 98%
    10:00 +7°C° 0 mm 5 mps 725 mmHg 93%
    11:00 +8°C° 0 mm 6 mps 726 mmHg 88%
    12:00 +9°C° 0 mm 8 mps 727 mmHg 84%
    13:00 +9°C° 0 mm 7 mps 727 mmHg 83%
    14:00 +8°C° 0 mm 6 mps 728 mmHg 83%
    15:00 +8°C° 0 mm 6 mps 728 mmHg 82%
    16:00 +7°C° 0 mm 5 mps 728 mmHg 86%
    17:00 +6°C° 0 mm 4 mps 728 mmHg 90%
    18:00 +5°C° 0 mm 3 mps 728 mmHg 94%
    19:00 +5°C° 0 mm 3 mps 728 mmHg 94%
    20:00 +6°C° 0 mm 2 mps 729 mmHg 95%
    21:00 +6°C° 0 mm 2 mps 729 mmHg 96%
    22:00 +6°C° 0 mm 2 mps 728 mmHg 97%
    23:00 +6°C° 0 mm 2 mps 728 mmHg 97%

    3 February, Monday

    Time Temperature Precipitation Wind Pressure Humidity
    00:00 +7°C° 0 mm 1 mps 727 mmHg 98%
    01:00 +7°C° 0.2 mm 2 mps 726 mmHg 97%
    02:00 +8°C° 0.2 mm 3 mps 725 mmHg 97%
    03:00 +7°C° 0.2 mm 4 mps 723 mmHg 97%
    04:00 +8°C° 0.3 mm 7 mps 723 mmHg 94%
    05:00 +7°C° 0.3 mm 9 mps 722 mmHg 90%
    06:00 +8°C° 0.3 mm 11 mps 722 mmHg 86%
    07:00 +7°C° 0 mm 11 mps 722 mmHg 86%
    08:00 +7°C° 0 mm 10 mps 723 mmHg 86%
    09:00 +7°C° 0 mm 10 mps 723 mmHg 86%
    10:00 +7°C° 0.1 mm 10 mps 723 mmHg 83%
    11:00 +7°C° 0.1 mm 10 mps 723 mmHg 80%
    12:00 +7°C° 0.1 mm 10 mps 723 mmHg 76%
    13:00 +7°C° 0.1 mm 10 mps 722 mmHg 77%
    14:00 +7°C° 0.1 mm 10 mps 721 mmHg 77%
    15:00 +7°C° 0.1 mm 10 mps 720 mmHg 77%
    16:00 +6°C° 0.6 mm 10 mps 720 mmHg 79%
    17:00 +5°C° 0.6 mm 10 mps 720 mmHg 80%
    18:00 +3°C° 0.6 mm 10 mps 719 mmHg 81%
    19:00 +2°C° 0.4 mm 10 mps 720 mmHg 83%
    20:00 +2°C° 0.4 mm 10 mps 720 mmHg 85%
    21:00 +2°C° 0.4 mm 9 mps 720 mmHg 86%
    22:00 +2°C° 0.1 mm 10 mps 721 mmHg 85%
    23:00 +2°C° 0.1 mm 10 mps 721 mmHg 84%
    Show more